Regional Weather Roundup
Issued by NWS

Home | Current Version | Previous Version | Graphics & Text | Print | Product List | Glossary On
Versions: 1 2 3 4 5 6 7 8 9 10 11 12 13 14 15 16 17 18 19 20 21 22 23 24 25 26 27 28 29 30 31 32 33 34 35 36 37 38 39 40 41 42 43 44 45 46 47 48 49 50
000
ASUS43 KFSD 192302
RWRSD

WEATHER ROUNDUP FOR SOUTH DAKOTA
NATIONAL WEATHER SERVICE SIOUX FALLS SD
600 PM CDT FRI SEP 19 2014

NOTE: "FAIR" INDICATES FEW OR NO CLOUDS BELOW 12,000 FEET WITH NO
SIGNIFICANT WEATHER AND/OR OBSTRUCTIONS TO VISIBILITY.


SDZ001>005-009-010-012>017-200000-
NORTHWEST AND NORTH CENTRAL SOUTH DAKOTA

CITY           SKY/WX    TMP DP  RH WIND       PRES   REMARKS
FAITH            N/A     81  51  35 NW15      29.80R
MOBRIDGE       SUNNY     83  53  35 W12       29.68R
$$

SDZ012>016-024>037-041>051-057-063-072>074-200000-
SOUTHWEST AND SOUTH CENTRAL SOUTH DAKOTA

CITY           SKY/WX    TMP DP  RH WIND       PRES   REMARKS
RAPID CTY ARPT MOSUNNY   80  49  33 N10       29.85R
PIERRE         SUNNY     85  54  34 NW14      29.71R
CUSTER         SUNNY     76  37  24 W12G21    29.99R
ELLSWORTH AFB  PTSUNNY   81  47  30 N9        29.85R
PHILIP         MOSUNNY   84  55  36 N8        29.77R
PINE RIDGE     SUNNY     84  51  31 W8        29.83R
WINNER         FAIR      88  54  31 NW10      29.75R
$$

SDZ004>011-016>023-039-040-200000-
NORTHEAST SOUTH DAKOTA

CITY           SKY/WX    TMP DP  RH WIND       PRES   REMARKS
ABERDEEN       MOSUNNY   84  58  40 W10       29.65R
WATERTOWN      PTSUNNY   78  65  63 SW8       29.69R
$$

SDZ017-020-022-023-036>040-048>070-200000-
SOUTHEAST SOUTH DAKOTA

CITY           SKY/WX    TMP DP  RH WIND       PRES   REMARKS
SIOUX FALLS    MOSUNNY   87  65  47 W6        29.70R
HURON          PTSUNNY   87  57  35 W7        29.67R
CHAMBERLAIN    MOSUNNY   82  59  44 W5        29.72R
MITCHELL       MOSUNNY   84  62  47 W6        29.70R
YANKTON        SUNNY     88  64  45 W6        29.69S
$$

ABBREVIATIONS USED IN REMARKS
   TC - TEMPERATURE IN CELSIUS
  WCI - WIND CHILL INDEX
   HX - HEAT INDEX
  VSB - VISIBILITY



USA.gov is the U.S. government's official web portal to all federal, state and local government web resources and services.